#timestamp,LO_Frequency,Hit,StdDev 
1540659615.4,286046996.9,P
1540659635.2,286046996.9,P
1540659655.1,286046998.6,N
1540659656.0,286046998.6,N
1540659675.8,286046997.1,Y
1540659695.6,286046999.7,P
1540659715.5,286047000.9,N
1540659735.3,286047001.2,N
1540659755.1,286047000.1,N
1540659775.9,286046999.9,N
1540659795.7,286047002.3,N
1540659815.6,286047000.2,N
1540659835.4,286047002.2,N
1540659855.2,286047000.5,N
1540659875.1,286046999.9,N
1540659876.0,286046999.9,N
1540659895.8,286047000.7,N
1540659915.6,286046998.9,N
1540659935.5,286047000.0,N
1540659955.3,286047000.6,N
1540659975.2,286047000.9,N
1540659995.9,286047000.8,N
1540660015.7,286047001.0,N
1540660035.6,286046998.1,N
1540660055.4,286046998.1,N
1540660075.2,286046998.7,N
1540660095.1,286046998.4,N
1540660096.0,286046998.4,N
1540660115.8,286046998.9,N
1540660135.7,286046998.9,N
1540660155.5,286046998.4,N
1540660175.3,286046999.2,N
1540660195.2,286046998.5,N
1540660215.0,286046998.2,N
1540660215.9,286046998.2,N
1540660235.7,286046998.6,N
1540660255.6,286046999.2,N
1540660275.4,286046999.1,N
1540660295.3,286046996.5,Y
1540660315.1,286046998.9,P
1540660316.0,286046998.9,P
1540660335.8,286046999.4,N
1540660355.7,286046997.7,Y
1540660375.5,286046998.0,P
1540660395.4,286046997.2,P
1540660415.2,286046996.8,P
1540660435.0,286046997.7,N
1540660435.9,286046997.7,N
1540660455.8,286046997.0,Y
1540660475.6,286047001.2,P
1540660495.4,286047001.1,N
1540660515.3,286047000.7,N
1540660535.1,286046998.7,N
1540660555.9,286047000.8,N
1540660575.7,286047001.1,N
1540660595.5,286047001.1,N
1540660615.4,286046999.6,N
1540660635.2,286046999.6,N
1540660655.0,286046999.4,N
1540660655.9,286046999.4,N
1540660675.8,286046999.2,N
1540660695.6,286046996.9,N
1540660715.5,286046997.4,N
1540660735.3,286046997.5,N
1540660755.1,286046997.7,N
1540660775.9,286046996.9,N
1540660795.7,286046999.4,N
1540660815.5,286046997.9,N
1540660835.4,286046999.4,N
1540660855.2,286046996.7,N
1540660875.1,286046996.8,N
1540660876.0,286046996.8,N
1540660895.8,286046999.1,N
1540660915.6,286046996.5,N
1540660935.5,286046996.6,N
1540660955.3,286046996.6,N
1540660975.1,286046999.6,N
1540660995.9,286046996.6,N
1540661015.7,286046996.9,N
1540661035.6,286046999.4,N
1540661055.4,286046999.2,N
1540661075.2,286046999.6,N
1540661095.1,286046998.7,N
1540661096.0,286046998.7,N
1540661115.8,286046998.4,N
1540661135.6,286046999.0,N
1540661155.5,286046999.5,N
1540661175.3,286046999.1,N
1540661195.2,286046998.7,N
1540661215.9,286046996.5,Y
1540661235.7,286046999.8,P
1540661255.6,286047002.1,N
1540661275.4,286047001.6,N
1540661295.2,286046999.8,N
1540661315.1,286046999.7,N
1540661316.0,286046999.7,N
1540661335.8,286047001.2,N
1540661355.7,286047000.3,N
1540661375.5,286047000.4,N
1540661395.3,286047002.7,N
1540661415.2,286047000.5,N
1540661435.0,286046999.9,N
1540661435.9,286046999.9,N
1540661455.7,286047001.0,N
1540661475.6,286046998.5,N
1540661495.4,286046998.9,N
1540661515.3,286047000.6,N
1540661535.1,286047000.8,N
1540661536.0,286047000.8,N
1540661555.8,286047000.8,N
1540661575.7,286046998.2,N
1540661595.5,286047000.9,N
1540661615.4,286046998.7,N
1540661635.2,286046998.5,N
1540661655.0,286046997.3,N
1540661655.9,286046997.3,N
1540661675.8,286046996.5,N
1540661695.6,286047001.2,N
1540661715.4,286046998.5,N
1540661735.3,286047001.2,N
1540661755.1,286047000.5,N
1540661775.8,286047000.0,N
1540661795.7,286047002.7,N
1540661815.5,286047000.0,N
1540661835.4,286047001.0,N
1540661855.2,286047001.2,N
1540661875.0,286046999.6,N
1540661875.9,286046999.6,N
1540661895.8,286046996.7,N
1540661915.6,286046996.5,N
1540661935.5,286046997.0,N
1540661955.3,286046997.0,N
1540661975.1,286046999.5,N
1540661995.9,286046999.6,N
1540662015.7,286046999.5,N
1540662035.5,286046997.4,N
1540662055.4,286046997.8,N
1540662075.2,286046997.3,N
1540662095.1,286046996.6,N
1540662096.0,286046996.6,N
1540662115.8,286046995.4,N
1540662135.6,286046997.9,N
1540662155.5,286046997.9,N
1540662175.3,286046995.2,N
1540662195.2,286046993.6,Y
1540662215.9,286046995.6,P
1540662235.7,286046997.4,N
1540662255.6,286046994.9,P
1540662275.4,286046994.0,Y
1540662295.2,286046996.6,P
1540662315.1,286046996.7,P
1540662316.0,286046996.7,P
1540662335.8,286046996.5,Y
1540662355.7,286046999.7,P
1540662375.5,286047001.9,N
1540662395.3,286047004.3,N
1540662415.2,286047002.2,N
1540662435.0,286047000.2,N
1540662435.9,286047000.2,N
1540662455.7,286047002.3,N
1540662475.6,286047002.8,N
1540662495.4,286047002.7,N
1540662515.3,286047000.0,N
1540662535.1,286047000.4,N
1540662536.0,286047000.4,N
1540662555.8,286047002.3,N
1540662575.7,286047000.9,N
1540662595.5,286047000.5,N
1540662615.3,286047000.5,N
1540662635.2,286046998.1,N
1540662655.0,286046998.1,N
1540662655.9,286046998.1,N
1540662675.8,286046999.0,N
1540662695.6,286046998.9,N
1540662715.4,286046998.3,N
1540662735.3,286046999.0,N
1540662755.1,286046999.4,N
1540662775.8,286046999.4,N
1540662795.7,286046998.9,N
1540662815.5,286046997.4,N
1540662835.4,286046998.0,N
1540662855.2,286046997.3,N
1540662875.0,286046995.2,N
1540662875.9,286046995.2,N
1540662895.8,286046995.3,N
1540662915.6,286046997.3,N
1540662935.4,286046997.5,N
1540662955.3,286046997.2,N
1540662975.1,286046999.3,N
1540662995.9,286046999.1,N
1540663015.7,286046998.2,N
1540663035.5,286046999.1,N
1540663055.4,286046996.6,N
1540663075.2,286046998.1,N
1540663095.0,286046999.1,N
1540663095.9,286046999.1,N
1540663115.8,286047001.2,N
1540663135.6,286046998.6,N
1540663155.5,286046999.3,N
1540663175.3,286046997.0,N
1540663195.1,286046997.8,N
